Location: Newark
(47.5833°N, 8.1500°E)
Time: 18:49:33
(UTC+00:00)

Transit 2A - Pass Details

Date: 30 October 2020
Orbit: 595 x 964 km, 66.7° (Epoch: 01 December)

Event Time Altitude Azimuth Distance (km) Brightness Sun altitude
Rises 22:10:59 0° 157° (SSE) 3,618 - -54.3°
Reaches altitude 10° 22:14:41 10° 135° (SE) 2,694 - -54.6°
Maximum altitude 22:18:06 15° 102° (ESE) 2,339 - -54.8°
Drops below altitude 10° 22:21:30 10° 70° (ENE) 2,686 - -55.0°
Sets 22:25:09 0° 49° (NE) 3,601 - -55.2°
